Temp
35 38 39 41 43 44 43 43 44 43 44 44 44 45 46 47 47 48 49 49 49 50 50 51 51 52 52
37 37 39 41 41 40 41 42 42 42 42 43 44 44 44 45 45 46 47 47 48 48 48 49 50 50 51
35 39 38 38 39 39 39 39 40 40 41 42 42 42 43 44 45 45 45 45 46 46 46 47 48 49 50
35 36 36 38 36 34 35 39 38 40 40 40 41 41 42 42 42 42 42 42 43 44 44 45 46 46 47
34 34 34 35 35 37 34 35 36 38 37 39 39 39 40 40 40 40 40 41 42 43 44 45 45 45 46
33 32 34 35 36 34 33 30 28 40 36 36 39 37 39 40 39 40 41 42 42 43 44 44 44 44 45
34 34 34 35 33 30 32 31 30 36 35 32 38 35 39 39 39 39 40 41 41 42 43 43 43 44 44
37 37 37 36 35 33 34 33 34 36 36 27 36 35 38 38 38 38 39 40 41 42 42 43 43 43 43
38 38 38 38 37 35 31 29 27 31 35 30 32 32 34 35 38 38 39 40 40 40 40 41 41 42 41
34 35 34 34 34 34 31 25 24 25 33 28 30 29 26 35 35 36 36 37 37 37 38 39 39 37 36
32 32 32 33 33 33 31 27 24 24 32 29 27 27 25 26 31 33 34 34 35 35 35 35 36 36 33
29 29 29 29 29 30 29 29 29 26 29 28 23 24 23 23 24 31 33 33 32 31 31 33 34 35 37
26 27 28 28 26 27 28 28 26 26 27 27 25 24 24 23 23 25 27 30 32 30 31 31 31 32 30
26 27 27 26 26 28 25 26 24 26 30 28 26 25 23 25 25 24 28 25 30 31 31 32 33 34 33
24 24 25 25 25 27 25 24 23 24 26 29 31 29 28 26 24 27 28 28 31 30 30 28 31 33 34
23 23 22 22 23 25 27 25 23 24 25 28 29 27 29 31 31 26 29 29 31 31 30 27 29 35 37
21 21 22 22 24 25 26 25 25 26 28 29 28 27 24 24 33 39 30 32 32 31 32 32 30 33 36
MSLP
1024.48 1024.41 1024.83 1024.10 1023.95 1023.94 1023.75 1023.45 1023.14 1022.99 1022.58 1022.12 1021.70 1021.13 1020.65 1020.24 1019.86 1019.54 1019.13 1018.81 1018.43 1018.10 1017.84 1017.54 1017.23 1016.85 1016.58
1023.89 1023.72 1023.72 1023.63 1023.57 1023.33 1023.14 1022.95 1022.63 1022.28 1021.85 1021.29 1020.75 1020.35 1020.04 1019.65 1019.26 1018.87 1018.53 1018.09 1017.78 1017.46 1017.24 1016.97 1016.60 1016.31 1015.97
1023.25 1023.32 1023.45 1023.34 1023.06 1022.93 1022.83 1022.53 1022.26 1021.63 1021.11 1020.71 1020.28 1019.82 1019.41 1019.03 1018.63 1018.14 1017.79 1017.53 1017.16 1016.87 1016.48 1016.11 1015.74 1015.47 1015.10
1023.23 1023.22 1023.14 1022.96 1022.88 1022.62 1022.23 1021.95 1021.34 1020.87 1020.55 1020.19 1019.77 1019.27 1018.76 1018.44 1018.00 1017.60 1017.21 1016.87 1016.47 1016.06 1015.61 1015.20 1014.88 1014.63 1014.31
1022.96 1022.82 1022.73 1022.48 1022.12 1021.98 1021.84 1021.43 1020.96 1020.42 1019.90 1019.49 1019.09 1018.65 1018.11 1017.70 1017.25 1016.86 1016.39 1015.87 1015.37 1014.89 1014.47 1014.17 1013.88 1013.67 1013.37
1022.57 1022.34 1022.03 1021.95 1021.82 1021.77 1021.56 1021.27 1020.27 1019.48 1019.39 1019.01 1018.52 1017.85 1017.28 1016.88 1016.45 1015.78 1015.05 1014.67 1014.40 1013.99 1013.53 1013.21 1012.95 1012.70 1012.34
1022.03 1021.90 1021.71 1021.61 1021.56 1021.42 1021.08 1020.73 1020.11 1019.12 1018.98 1018.16 1017.63 1016.96 1016.50 1016.05 1015.49 1014.84 1014.44 1013.90 1013.42 1013.03 1012.61 1012.20 1011.94 1011.61 1011.24
1021.74 1021.55 1021.40 1021.28 1021.13 1020.83 1020.31 1019.98 1019.53 1018.62 1018.60 1017.64 1016.65 1016.04 1015.65 1015.17 1014.67 1014.09 1013.51 1013.01 1012.59 1012.14 1011.69 1011.22 1010.79 1010.46 1010.15
1021.26 1021.03 1020.82 1020.58 1020.35 1020.13 1019.89 1019.69 1019.06 1018.06 1017.92 1017.50 1016.36 1015.63 1014.93 1013.95 1013.32 1012.98 1012.62 1012.14 1011.73 1011.33 1010.83 1010.42 1010.00 1009.53 1009.08
1021.19 1020.91 1020.68 1020.34 1020.05 1019.88 1019.75 1019.63 1019.35 1018.25 1017.34 1017.33 1016.16 1015.86 1014.32 1012.92 1012.66 1012.33 1011.91 1011.37 1010.93 1010.42 1009.93 1009.48 1009.16 1008.78 1008.40
1020.75 1020.45 1020.19 1019.92 1019.63 1019.49 1019.48 1019.55 1019.26 1018.45 1017.18 1017.37 1016.15 1015.81 1015.40 1013.51 1011.97 1011.56 1011.16 1010.24 1009.81 1009.32 1009.00 1008.68 1008.33 1008.11 1007.66
1020.51 1020.15 1019.84 1019.62 1019.43 1019.21 1018.93 1018.75 1018.49 1017.98 1016.73 1017.14 1016.37 1015.65 1014.89 1013.63 1012.01 1010.51 1010.01 1009.44 1009.02 1008.33 1008.08 1007.63 1007.20 1006.88 1006.53
1020.48 1020.10 1019.90 1019.58 1019.24 1018.70 1018.15 1017.73 1017.41 1016.75 1016.10 1015.76 1015.56 1014.82 1014.37 1013.20 1011.97 1010.21 1009.43 1008.03 1008.01 1007.58 1007.13 1006.71 1006.22 1005.90 1005.39
1020.42 1020.02 1019.67 1019.24 1018.69 1018.19 1017.64 1016.96 1016.19 1014.84 1014.42 1014.33 1014.19 1013.95 1013.07 1012.16 1011.41 1009.64 1008.64 1008.48 1006.82 1006.47 1006.05 1005.42 1004.99 1004.61 1004.14
1020.21 1019.73 1019.25 1018.80 1018.16 1017.77 1017.34 1016.76 1016.16 1014.82 1013.53 1012.88 1012.69 1012.41 1011.80 1011.18 1009.97 1008.59 1007.68 1006.69 1006.23 1005.47 1005.11 1004.16 1003.44 1003.13 1002.64
1019.96 1019.59 1019.09 1018.50 1017.80 1017.09 1016.49 1016.09 1015.33 1014.40 1013.49 1012.33 1011.58 1010.71 1009.69 1009.02 1008.66 1007.36 1006.52 1005.75 1004.88 1004.38 1003.96 1003.20 1001.78 1001.36 1001.08
1019.63 1019.18 1018.72 1018.03 1017.27 1016.42 1015.72 1015.15 1014.26 1013.47 1012.57 1011.64 1010.79 1010.12 1008.93 1007.37 1006.47 1006.10 1005.67 1004.54 1003.87 1003.18 1002.72 1002.06 1001.07 1000.04 999.97
Wind_Speed
4 4 5 6 7 7 6 7 8 16 20 20 20 20 21 22 22 23 23 24 24 25 25 25 25 25 25
2 3 5 6 7 8 7 7 10 16 20 20 20 20 20 20 21 22 22 22 24 25 26 26 27 27 28
4 3 4 4 6 7 8 9 9 17 18 19 19 19 19 20 22 23 23 25 26 26 27 27 28 28 29
5 6 4 4 4 7 8 8 10 11 14 15 17 18 22 23 24 24 24 24 25 25 26 26 27 28 28
6 5 6 6 8 8 9 9 10 11 9 8 9 10 12 17 18 22 22 23 24 25 26 26 27 27 28
5 7 9 8 8 8 9 9 9 6 7 11 11 12 12 10 19 23 26 26 26 26 26 26 26 26 27
8 9 10 10 8 8 10 10 11 12 12 13 11 13 11 11 21 25 26 26 26 24 24 24 24 25 26
8 10 9 9 8 8 12 12 11 12 10 10 10 11 11 11 22 26 25 23 23 23 23 24 25 26 26
11 12 13 16 12 8 7 8 9 10 9 10 8 10 11 12 10 17 20 21 24 26 26 26 26 27 20
6 9 9 9 11 6 5 7 7 8 0 5 9 9 7 7 7 10 11 19 24 25 25 26 26 12 11
6 6 6 6 5 5 6 6 7 9 11 7 7 9 7 10 9 9 11 13 12 13 20 22 22 18 10
5 6 6 7 6 7 9 9 9 14 15 10 7 8 10 11 12 10 10 11 11 10 9 14 20 21 22
6 7 6 7 10 9 9 10 10 12 11 12 10 12 9 11 12 15 13 9 11 11 9 10 10 10 10
6 7 7 6 8 7 8 8 9 9 7 10 11 11 11 11 11 15 13 8 9 10 10 11 11 11 11
6 7 7 7 8 7 7 8 7 9 12 9 9 12 12 14 13 13 13 13 11 12 12 12 11 11 11
6 6 7 8 9 8 7 8 9 9 11 11 10 11 8 10 21 14 11 12 12 12 11 11 12 10 11
6 6 7 8 10 8 8 8 9 10 10 10 9 9 11 13 9 13 12 12 12 11 11 10 13 12 10
Wind_Direction
212 206 239 267 279 284 290 293 290 292 297 299 297 292 292 291 290 288 286 287 285 283 282 283 283 281 280
222 222 243 276 284 292 293 292 295 293 296 297 297 297 294 293 290 286 283 283 284 286 283 281 277 276 276
261 245 261 272 289 287 290 293 288 291 294 295 294 296 294 292 290 288 290 289 286 284 282 279 278 274 273
273 273 275 280 265 293 300 297 299 296 292 288 288 292 290 292 292 288 287 286 283 280 279 276 274 273 273
270 276 282 287 296 311 300 304 300 285 284 291 292 289 287 289 284 284 282 279 277 277 276 276 274 273 273
277 281 294 300 305 301 300 302 308 284 290 295 292 290 287 284 285 284 282 284 286 284 280 278 276 275 272
291 294 299 299 297 289 289 291 288 285 295 294 291 284 285 280 279 281 287 287 286 284 282 281 280 276 272
281 286 285 279 272 270 289 295 287 285 294 279 291 285 292 281 277 280 282 284 286 287 284 281 282 284 281
294 295 299 299 297 295 288 297 300 293 297 278 282 295 294 282 273 268 274 281 286 288 286 285 284 282 280
297 300 302 297 301 287 282 283 294 299 68 279 297 316 305 284 282 288 285 282 285 284 283 285 285 281 277
306 302 303 301 304 300 285 266 270 262 273 288 289 295 274 293 291 286 287 285 283 283 284 284 282 277 269
308 308 312 309 306 297 286 269 254 254 277 275 268 274 276 284 287 291 286 286 283 279 278 278 279 276 271
303 298 297 293 295 292 284 276 261 260 259 259 250 267 261 267 275 288 292 291 288 280 275 272 274 275 277
297 297 294 293 298 302 305 314 306 296 256 242 244 245 261 261 266 274 282 277 290 280 279 275 274 269 259
302 301 301 304 301 306 294 299 288 297 304 298 276 257 252 259 269 267 275 277 271 280 284 280 273 267 261
303 295 296 300 301 299 296 295 290 290 288 291 300 304 281 247 230 269 270 272 280 277 270 271 278 269 263
292 293 291 290 298 297 298 295 295 294 287 288 287 292 297 297 291 255 281 290 294 288 282 275 280 284 277